timestamp,surface_pressure_avg,surface_temp_avg,battery_voltage,lat,long
2020-03-06 00:09:01+00:00,245.5431,0.26,12.73,47.84626,-54.09684
2020-03-06 00:19:01+00:00,243.6414,0.26,12.65,47.84626,-54.09684
2020-03-06 00:29:01+00:00,241.9447,0.26,12.65,47.84626,-54.09684
2020-03-06 00:39:01+00:00,236.2948,0.27,12.65,47.84626,-54.09684
2020-03-06 00:49:01+00:00,230.1031,0.26,12.65,47.84626,-54.09684
2020-03-06 00:59:01+00:00,231.8698,0.26,12.65,47.84626,-54.09684
2020-03-06 01:09:01+00:00,233.3248,0.27,12.65,47.84626,-54.09684
2020-03-06 01:19:01+00:00,225.2365,0.24,12.65,47.84626,-54.09684
2020-03-06 01:29:01+00:00,223.6198,0.22,12.65,47.84626,-54.09684
2020-03-06 01:39:01+00:00,228.3914,0.22,12.65,47.84626,-54.09684
2020-03-06 01:49:01+00:00,223.0914,0.21,12.65,47.84626,-54.09684
2020-03-06 01:59:01+00:00,214.8664,0.2,12.65,47.84626,-54.09684
2020-03-06 02:09:01+00:00,220.3131,0.2,12.65,47.84626,-54.09684
2020-03-06 02:19:01+00:00,227.3081,0.2,12.65,47.84626,-54.09684
2020-03-06 02:29:01+00:00,222.3365,0.2,12.65,47.84626,-54.09684
2020-03-06 02:39:01+00:00,218.9847,0.2,12.65,47.84626,-54.09684
2020-03-06 02:49:01+00:00,222.7798,0.2,12.65,47.84626,-54.09684
2020-03-06 02:59:01+00:00,221.9714,0.2,12.65,47.84626,-54.09684
2020-03-06 03:09:01+00:00,220.2764,0.2,12.65,47.84626,-54.09684
2020-03-06 03:19:01+00:00,223.9264,0.2,12.65,47.84626,-54.09684
2020-03-06 03:29:01+00:00,226.6948,0.2,12.65,47.84626,-54.09684
2020-03-06 03:39:01+00:00,226.3331,0.2,12.65,47.84626,-54.09684
2020-03-06 03:49:01+00:00,228.2364,0.2,12.65,47.84626,-54.09684
2020-03-06 03:59:01+00:00,231.9181,0.2,12.65,47.84626,-54.09684
2020-03-06 04:09:01+00:00,231.6731,0.2,12.65,47.84626,-54.09684
2020-03-06 04:19:01+00:00,233.8981,0.2,12.65,47.84626,-54.09684
2020-03-06 04:29:01+00:00,239.3947,0.2,12.65,47.84626,-54.09684
2020-03-06 04:39:01+00:00,241.4481,0.2,12.65,47.84626,-54.09684
2020-03-06 04:49:01+00:00,245.5131,0.2,12.65,47.84626,-54.09684
2020-03-06 04:59:01+00:00,255.2197,0.2,12.65,47.84626,-54.09684
2020-03-06 05:09:01+00:00,260.9214,0.2,12.65,47.84626,-54.09684
2020-03-06 05:19:01+00:00,267.2131,0.2,12.65,47.84626,-54.09684
2020-03-06 05:29:01+00:00,277.4915,0.2,12.65,47.84626,-54.09684
2020-03-06 05:39:01+00:00,288.4697,0.2,12.65,47.84626,-54.09684
2020-03-06 05:49:01+00:00,290.0098,0.2,12.65,47.84626,-54.09684
2020-03-06 05:59:01+00:00,292.548,0.2,12.65,47.84626,-54.09684
2020-03-06 06:09:01+00:00,299.7614,0.2,12.65,47.84626,-54.09684
2020-03-06 06:19:01+00:00,305.5447,0.2,12.65,47.84626,-54.09684
2020-03-06 06:29:01+00:00,307.8181,0.2,12.65,47.84626,-54.09684
2020-03-06 06:39:01+00:00,310.3813,0.2,12.65,47.84626,-54.09684
2020-03-06 06:49:01+00:00,316.1346,0.2,12.65,47.84626,-54.09684
2020-03-06 06:59:01+00:00,321.5213,0.2,12.65,47.84626,-54.09684
2020-03-06 07:09:01+00:00,320.9363,0.2,12.65,47.84626,-54.09684
2020-03-06 07:19:01+00:00,325.5613,0.2,12.65,47.84626,-54.09684
2020-03-06 07:29:01+00:00,332.2263,0.2,12.65,47.84626,-54.09684
2020-03-06 07:39:01+00:00,333.5563,0.2,12.65,47.84626,-54.09684
2020-03-06 07:49:01+00:00,336.0696,0.2,12.65,47.84626,-54.09684
2020-03-06 07:59:01+00:00,340.8163,0.2,12.65,47.84626,-54.09684
2020-03-06 08:09:01+00:00,343.0513,0.2,12.65,47.84626,-54.09684
2020-03-06 08:19:01+00:00,345.1479,0.2,12.57,47.84626,-54.09684
2020-03-06 08:29:01+00:00,349.7396,0.2,12.57,47.84626,-54.09684
2020-03-06 08:39:01+00:00,353.1179,0.2,12.57,47.84626,-54.09684
2020-03-06 08:49:01+00:00,357.3362,0.19,12.57,47.84626,-54.09684
2020-03-06 08:59:01+00:00,358.2896,0.18,12.57,47.84626,-54.09684
2020-03-06 09:09:01+00:00,355.7196,0.19,12.57,47.84626,-54.09684
2020-03-06 09:19:01+00:00,357.0197,0.19,12.57,47.84626,-54.09684
2020-03-06 09:29:01+00:00,358.5162,0.17,12.57,47.84626,-54.09684
2020-03-06 09:39:01+00:00,354.913,0.19,12.57,47.84626,-54.09684
2020-03-06 09:49:01+00:00,352.6846,0.19,12.57,47.84626,-54.09684
2020-03-06 09:59:01+00:00,352.3279,0.2,12.57,47.84626,-54.09684
2020-03-06 10:09:01+00:00,348.8096,0.2,12.57,47.84626,-54.09684
2020-03-06 10:19:01+00:00,344.8547,0.2,12.57,47.84626,-54.09684
2020-03-06 10:29:01+00:00,343.4697,0.2,12.57,47.84626,-54.09684
2020-03-06 10:39:01+00:00,340.0146,0.2,12.57,47.84626,-54.09684
2020-03-06 10:49:01+00:00,330.3446,0.2,12.57,47.84626,-54.09684
2020-03-06 10:59:01+00:00,326.2646,0.2,12.57,47.84626,-54.09684
2020-03-06 11:09:01+00:00,324.2963,0.2,12.57,47.84626,-54.09684
2020-03-06 11:19:01+00:00,319.0764,0.1,12.97,47.84626,-54.09684
2020-03-06 11:29:01+00:00,310.3496,0.1,12.97,47.84626,-54.09684
2020-03-06 11:39:01+00:00,310.1363,0.08,12.97,47.84626,-54.09684
2020-03-06 11:49:01+00:00,309.6063,0.1,12.97,47.84626,-54.09684
2020-03-06 11:59:01+00:00,303.1163,0.1,12.97,47.84626,-54.09684
2020-03-06 12:09:01+00:00,293.4081,0.1,12.97,47.84626,-54.09684
2020-03-06 12:19:01+00:00,286.933,0.1,14.56,47.84626,-54.09684
2020-03-06 12:29:01+00:00,285.3431,0.13,14.56,47.84626,-54.09684
2020-03-06 12:39:01+00:00,277.7297,0.15,14.56,47.84626,-54.09684
2020-03-06 12:49:01+00:00,271.3498,0.1,14.56,47.84626,-54.09684
2020-03-06 12:59:01+00:00,270.8297,0.1,14.56,47.84626,-54.09684
2020-03-06 13:09:01+00:00,271.9064,0.17,14.56,47.84626,-54.09684
2020-03-06 13:19:01+00:00,264.2147,0.2,14.64,47.84626,-54.09684
2020-03-06 13:29:01+00:00,256.8864,0.2,14.64,47.84626,-54.09684
2020-03-06 13:39:01+00:00,255.1898,0.2,14.64,47.84626,-54.09684
2020-03-06 13:49:01+00:00,255.2864,0.2,14.64,47.84626,-54.09684
2020-03-06 13:59:01+00:00,248.2632,0.2,14.64,47.84626,-54.09684
2020-03-06 14:09:01+00:00,241.4448,0.2,14.64,47.84626,-54.09684
2020-03-06 14:19:01+00:00,240.4048,0.2,14.8,47.84626,-54.09684
2020-03-06 14:29:01+00:00,239.7547,0.2,14.8,47.84626,-54.09684
2020-03-06 14:39:01+00:00,230.7748,0.2,14.8,47.84626,-54.09684
2020-03-06 14:49:01+00:00,228.2481,0.2,14.8,47.84626,-54.09684
2020-03-06 14:59:01+00:00,235.2647,0.2,14.8,47.84626,-54.09684
2020-03-06 15:09:01+00:00,236.2531,0.2,14.8,47.84626,-54.09684
2020-03-06 15:19:01+00:00,231.4331,0.2,14.72,47.84626,-54.09684
2020-03-06 15:29:01+00:00,231.9247,0.2,14.72,47.84626,-54.09684
2020-03-06 15:39:01+00:00,233.8681,0.2,14.72,47.84626,-54.09684
2020-03-06 15:49:01+00:00,230.1331,0.22,14.72,47.84626,-54.09684
2020-03-06 15:59:01+00:00,229.3964,0.25,14.72,47.84626,-54.09684
2020-03-06 16:09:01+00:00,233.6731,0.27,14.72,47.84626,-54.09684
2020-03-06 16:19:01+00:00,232.8381,0.3,14.64,47.84626,-54.09684
2020-03-06 16:29:01+00:00,232.4731,0.37,14.64,47.84626,-54.09684
2020-03-06 16:39:01+00:00,238.0348,0.4,14.64,47.84626,-54.09684
2020-03-06 16:49:01+00:00,241.9364,0.4,14.64,47.84626,-54.09684
2020-03-06 16:59:01+00:00,241.2148,0.39,14.64,47.84626,-54.09684
2020-03-06 17:09:01+00:00,242.3548,0.37,14.64,47.84626,-54.09684
2020-03-06 17:19:01+00:00,247.1481,0.35,14.48,47.84626,-54.09684
2020-03-06 17:29:01+00:00,253.9281,0.35,14.48,47.84626,-54.09684
2020-03-06 17:39:01+00:00,256.4948,0.3,14.48,47.84626,-54.09684
2020-03-06 17:49:01+00:00,258.6464,0.3,14.48,47.84626,-54.09684
2020-03-06 17:59:01+00:00,264.1297,0.3,14.48,47.84626,-54.09684
2020-03-06 18:09:01+00:00,268.8214,0.3,14.48,47.84626,-54.09684
2020-03-06 18:19:01+00:00,271.4681,0.3,14.4,47.84626,-54.09684
2020-03-06 18:29:01+00:00,276.4997,0.3,14.4,47.84626,-54.09684
2020-03-06 18:39:01+00:00,289.5313,0.3,14.4,47.84626,-54.09684
2020-03-06 18:49:01+00:00,295.5197,0.3,14.4,47.84626,-54.09684
2020-03-06 18:59:01+00:00,294.5213,0.3,14.4,47.84626,-54.09684
2020-03-06 19:09:01+00:00,298.4496,0.3,14.4,47.84626,-54.09684
2020-03-06 19:19:01+00:00,305.96299999999997,0.3,14.24,47.84626,-54.09684
2020-03-06 19:29:01+00:00,304.7047,0.3,14.24,47.84626,-54.09684
2020-03-06 19:39:01+00:00,300.4763,0.3,14.24,47.84626,-54.09684
2020-03-06 19:49:01+00:00,305.733,0.3,14.24,47.84626,-54.09684
2020-03-06 19:59:01+00:00,314.7297,0.3,14.24,47.84626,-54.09684
2020-03-06 20:09:01+00:00,316.21299999999997,0.3,14.24,47.84626,-54.09684
2020-03-06 20:19:01+00:00,318.6713,0.3,13.92,47.84626,-54.09684
2020-03-06 20:29:01+00:00,323.088,0.3,13.92,47.84626,-54.09684
2020-03-06 20:39:01+00:00,325.833,0.3,13.92,47.84626,-54.09684
2020-03-06 20:49:01+00:00,327.858,0.3,13.92,47.84626,-54.09684
2020-03-06 20:59:01+00:00,333.4863,0.3,13.92,47.84626,-54.09684
2020-03-06 21:09:01+00:00,333.7845,0.3,13.92,47.84626,-54.09684
2020-03-06 21:19:01+00:00,330.3046,0.3,13.53,47.84626,-54.09684
2020-03-06 21:29:01+00:00,335.1063,0.3,13.53,47.84626,-54.09684
2020-03-06 21:39:01+00:00,338.4647,0.3,13.53,47.84626,-54.09684
2020-03-06 21:49:01+00:00,334.5847,0.3,13.53,47.84626,-54.09684
2020-03-06 21:59:01+00:00,333.1113,0.3,13.53,47.84626,-54.09684
2020-03-06 22:09:01+00:00,335.4529,0.3,13.53,47.84626,-54.09684
2020-03-06 22:19:01+00:00,331.7329,0.3,13.13,47.84626,-54.09684
2020-03-06 22:29:01+00:00,325.758,0.3,13.13,47.84626,-54.09684
2020-03-06 22:39:01+00:00,324.338,0.29,13.13,47.84626,-54.09684
2020-03-06 22:49:01+00:00,322.6413,0.29,13.13,47.84626,-54.09684
2020-03-06 22:59:01+00:00,315.8497,0.3,13.13,47.84626,-54.09684
2020-03-06 23:09:01+00:00,306.683,0.29,13.13,47.84626,-54.09684
2020-03-06 23:19:01+00:00,304.068,0.28,12.81,47.84626,-54.09684
2020-03-06 23:29:01+00:00,301.7247,0.26,12.81,47.84626,-54.09684
2020-03-06 23:39:01+00:00,295.2697,0.2,12.81,47.84626,-54.09684
2020-03-06 23:49:01+00:00,290.8231,0.2,12.81,47.84626,-54.09684
2020-03-06 23:59:01+00:00,292.1346,0.2,12.81,47.84626,-54.09684
